Regional Weather Roundup
Issued by NWS

Home | Current Version | Previous Version | Graphics & Text | Print | Product List | Glossary On
Versions: 1 2 3 4 5 6 7 8 9 10 11 12 13 14 15 16 17 18 19 20 21 22 23 24 25 26 27 28 29 30 31 32 33 34 35 36 37 38 39 40 41 42 43 44 45 46 47 48 49 50
000
ASUS43 KFSD 210110
RWRSD

WEATHER ROUNDUP FOR SOUTH DAKOTA
NATIONAL WEATHER SERVICE SIOUX FALLS SD
700 PM CST MON FEB 20 2017

NOTE: "FAIR" INDICATES FEW OR NO CLOUDS BELOW 12,000 FEET WITH NO
SIGNIFICANT WEATHER AND/OR OBSTRUCTIONS TO VISIBILITY.


SDZ001>005-009-010-012>017-210200-
NORTHWEST AND NORTH CENTRAL SOUTH DAKOTA

CITY           SKY/WX    TMP DP  RH WIND       PRES   REMARKS
BUFFALO          N/A     49  24  37 SE8       29.67F
FAITH            N/A     53  23  31 CALM      29.77S
MOBRIDGE       CLEAR     42  34  73 SE5       29.76R
$$

SDZ012>016-024>037-041>051-057-063-072>074-210200-
SOUTHWEST AND SOUTH CENTRAL SOUTH DAKOTA

CITY           SKY/WX    TMP DP  RH WIND       PRES   REMARKS
RAPID CTY ARPT PTCLDY    54  22  28 SW5       29.80R
PIERRE         CLEAR     44  30  57 CALM      29.80S
CUSTER         CLEAR     47  25  42 W9G22     29.86S
ELLSWORTH AFB  PTCLDY    55  24  29 S6        29.79R
PHILIP         CLEAR     47  27  45 E5        29.81S
PINE RIDGE     CLEAR     46  29  51 S3        29.87R
SPEARFISH      FAIR      55  27  33 SW8G16    29.77F
WINNER         FAIR      53  27  36 W3        29.86R
$$

SDZ004>011-016>023-039-040-210200-
NORTHEAST SOUTH DAKOTA

CITY           SKY/WX    TMP DP  RH WIND       PRES   REMARKS
ABERDEEN       CLEAR     41  34  76 NW6       29.80R
WATERTOWN      CLEAR     42  38  85 W10       29.80R
BROOKINGS      CLEAR     41  39  93 W9        29.83R
SISSETON         N/A     41  38  89 NW13      29.77R
$$

SDZ017-020-022-023-036>040-048>070-210200-
SOUTHEAST SOUTH DAKOTA

CITY           SKY/WX    TMP DP  RH WIND       PRES   REMARKS
SIOUX FALLS    CLEAR     46  41  82 W8        29.85R
HURON          CLEAR     41  39  93 NW3       29.84R
CHAMBERLAIN    CLEAR     44  34  67 CALM      29.85R
MITCHELL       CLEAR     50  39  66 W5        29.86R
YANKTON        CLEAR     50  39  66 W10       29.87R
$$

ABBREVIATIONS USED IN REMARKS
   TC - TEMPERATURE IN CELSIUS
  WCI - WIND CHILL INDEX
   HX - HEAT INDEX
  VSB - VISIBILITY




USA.gov is the U.S. government's official web portal to all federal, state and local government web resources and services.